| time (UTC) | temp F | wind direction | speed knots | gust knots | rain 1hr in | rain 24hr in | rain mn in | humidity % | barometer mb |
| 20260504223025 | 70 | 201 | 2.6 | 13.9 | 0.00 | 0.00 | 0.00 | 36 | 1006.0 |
| 20260504222509 | 70 | 234 | 7.0 | 20.9 | 0.00 | 0.00 | 0.00 | 36 | 1006.0 |
| 20260504222008 | 70 | 249 | 7.8 | 20.9 | 0.00 | 0.00 | 0.00 | 36 | 1005.9 |
| 20260504221528 | 70 | 249 | 8.7 | 17.4 | 0.00 | 0.00 | 0.00 | 34 | 1005.8 |
| 20260504221011 | 70 | 245 | 8.7 | 16.5 | 0.00 | 0.00 | 0.00 | 35 | 1005.9 |
| 20260504220509 | 70 | 219 | 11.3 | 16.5 | 0.00 | 0.00 | 0.00 | 34 | 1005.9 |
| 20260504220024 | 70 | 244 | 6.1 | 13.9 | 0.00 | 0.00 | 0.00 | 34 | 1005.8 |
| 20260504215510 | 70 | 223 | 6.1 | 14.8 | 0.00 | 0.00 | 0.00 | 35 | 1005.8 |
| 20260504215009 | 71 | 202 | 5.2 | 19.1 | 0.00 | 0.00 | 0.00 | 34 | 1005.9 |
| 20260504214537 | 71 | 205 | 11.3 | 19.1 | 0.00 | 0.00 | 0.00 | 35 | 1005.9 |
| 20260504214012 | 70 | 231 | 6.1 | 17.4 | 0.00 | 0.00 | 0.00 | 35 | 1006.0 |
| 20260504213509 | 70 | 198 | 6.1 | 19.1 | 0.00 | 0.00 | 0.00 | 37 | 1006.1 |
| 20260504213010 | 70 | 215 | 10.4 | 20.9 | 0.00 | 0.00 | 0.00 | 34 | 1006.0 |
| 20260504212502 | 70 | 270 | 11.3 | 20.0 | 0.00 | 0.00 | 0.00 | 34 | 1006.1 |
| 20260504212005 | 70 | 189 | 8.7 | 17.4 | 0.00 | 0.00 | 0.00 | 33 | 1006.1 |
| 20260504211512 | 71 | 227 | 10.4 | 16.5 | 0.00 | 0.00 | 0.00 | 34 | 1006.1 |
| 20260504211001 | 71 | 219 | 9.6 | 16.5 | 0.00 | 0.00 | 0.00 | 34 | 1006.1 |
| 20260504210503 | 71 | 221 | 7.0 | 19.1 | 0.00 | 0.00 | 0.00 | 35 | 1006.1 |
| 20260504210007 | 71 | 232 | 9.6 | 21.7 | 0.00 | 0.00 | 0.00 | 35 | 1006.2 |
| 20260504205503 | 71 | 227 | 14.8 | 21.7 | 0.00 | 0.00 | 0.00 | 35 | 1006.1 |
| 20260504205004 | 71 | 245 | 6.1 | 21.7 | 0.00 | 0.00 | 0.00 | 35 | 1006.2 |
| 20260504204505 | 71 | 223 | 10.4 | 20.9 | 0.00 | 0.00 | 0.00 | 34 | 1006.2 |
| 20260504204004 | 71 | 210 | 5.2 | 11.3 | 0.00 | 0.00 | 0.00 | 37 | 1006.2 |
| 20260504203502 | 70 | 288 | 4.3 | 16.5 | 0.00 | 0.00 | 0.00 | 37 | 1006.3 |
| 20260504203007 | 70 | 225 | 7.0 | 16.5 | 0.00 | 0.00 | 0.00 | 36 | 1006.4 |
| 20260504202511 | 70 | 259 | 8.7 | 20.9 | 0.00 | 0.00 | 0.00 | 34 | 1006.4 |
| 20260504202004 | 70 | 215 | 8.7 | 23.5 | 0.00 | 0.00 | 0.00 | 35 | 1006.4 |
| 20260504201525 | 70 | 225 | 7.0 | 29.5 | 0.00 | 0.00 | 0.00 | 33 | 1006.3 |
| 20260504201003 | 71 | 236 | 17.4 | 29.5 | 0.00 | 0.00 | 0.00 | 33 | 1006.3 |
| 20260504200508 | 71 | 229 | 7.8 | 28.7 | 0.00 | 0.00 | 0.00 | 35 | 1006.4 |
| 20260504200005 | 71 | 269 | 5.2 | 30.4 | 0.00 | 0.00 | 0.00 | 37 | 1006.4 |
| 20260504195503 | 71 | 186 | 14.8 | 30.4 | 0.00 | 0.00 | 0.00 | 34 | 1006.2 |
| 20260504195007 | 70 | 203 | 10.4 | 19.1 | 0.00 | 0.00 | 0.00 | 35 | 1006.4 |
| 20260504194520 | 70 | 207 | 8.7 | 19.1 | 0.00 | 0.00 | 0.00 | 35 | 1006.5 |
| 20260504194003 | 70 | 257 | 1.7 | 22.6 | 0.00 | 0.00 | 0.00 | 38 | 1006.5 |
| 20260504193506 | 70 | 229 | 7.8 | 22.6 | 0.00 | 0.00 | 0.00 | 33 | 1006.5 |
| 20260504193003 | 70 | 227 | 9.6 | 20.0 | 0.00 | 0.00 | 0.00 | 36 | 1006.6 |
| 20260504192503 | 69 | 267 | 4.3 | 18.2 | 0.00 | 0.00 | 0.00 | 35 | 1006.6 |
| 20260504192007 | 69 | 156 | 5.2 | 20.9 | 0.00 | 0.00 | 0.00 | 35 | 1006.5 |
| 20260504191507 | 70 | 227 | 11.3 | 27.8 | 0.00 | 0.00 | 0.00 | 34 | 1006.7 |
| 20260504191006 | 70 | 221 | 10.4 | 27.8 | 0.00 | 0.00 | 0.00 | 36 | 1006.5 |
| 20260504190508 | 70 | 219 | 9.6 | 27.8 | 0.00 | 0.00 | 0.00 | 35 | 1006.6 |
| 20260504190015 | 70 | 198 | 18.2 | 27.8 | 0.00 | 0.00 | 0.00 | 35 | 1006.6 |
| 20260504185507 | 69 | 207 | 15.6 | 25.2 | 0.00 | 0.00 | 0.00 | 36 | 1006.6 |
| 20260504185002 | 69 | 229 | 13.0 | 25.2 | 0.00 | 0.00 | 0.00 | 34 | 1006.8 |
| 20260504184503 | 69 | 243 | 10.4 | 25.2 | 0.00 | 0.00 | 0.00 | 35 | 1006.9 |
| 20260504184003 | 70 | 232 | 13.0 | 22.6 | 0.00 | 0.00 | 0.00 | 34 | 1006.8 |
| 20260504183501 | 70 | 255 | 5.2 | 21.7 | 0.00 | 0.00 | 0.00 | 36 | 1006.9 |
| 20260504183007 | 70 | 188 | 8.7 | 20.0 | 0.00 | 0.00 | 0.00 | 35 | 1006.8 |
| 20260504182503 | 71 | 196 | 8.7 | 30.4 | 0.00 | 0.00 | 0.00 | 34 | 1006.8 |
| 20260504182013 | 71 | 237 | 20.0 | 30.4 | 0.00 | 0.00 | 0.00 | 35 | 1006.8 |
| 20260504181508 | 70 | 189 | 3.5 | 25.2 | 0.00 | 0.00 | 0.00 | 39 | 1006.8 |
| 20260504181004 | 70 | 250 | 18.2 | 25.2 | 0.00 | 0.00 | 0.00 | 33 | 1007.0 |
| 20260504180504 | 70 | 280 | 5.2 | 18.2 | 0.00 | 0.00 | 0.00 | 35 | 1006.9 |
| 20260504180028 | 70 | 242 | 8.7 | 25.2 | 0.00 | 0.00 | 0.00 | 36 | 1007.0 |
| 20260504175507 | 70 | 280 | 5.2 | 26.9 | 0.00 | 0.00 | 0.00 | 43 | 1007.1 |
| 20260504175005 | 69 | 243 | 16.5 | 26.9 | 0.00 | 0.00 | 0.00 | 35 | 1007.2 |
| 20260504174516 | 68 | 261 | 7.0 | 22.6 | 0.00 | 0.00 | 0.00 | 38 | 1007.2 |
| 20260504174007 | 68 | 265 | 8.7 | 22.6 | 0.00 | 0.00 | 0.00 | 39 | 1007.2 |
| 20260504173505 | 68 | 215 | 11.3 | 20.9 | 0.00 | 0.00 | 0.00 | 36 | 1007.2 |
| 20260504173003 | 69 | 272 | 7.0 | 18.2 | 0.00 | 0.00 | 0.00 | 37 | 1007.1 |
| 20260504172507 | 70 | 250 | 5.2 | 17.4 | 0.00 | 0.00 | 0.00 | 43 | 1007.2 |
| 20260504172001 | 68 | 87 | 4.3 | 17.4 | 0.00 | 0.00 | 0.00 | 34 | 1007.3 |
| 20260504171507 | 68 | 270 | 7.8 | 14.8 | 0.00 | 0.00 | 0.00 | 38 | 1007.4 |
| 20260504171003 | 67 | 51 | 4.3 | 19.1 | 0.00 | 0.00 | 0.00 | 39 | 1007.5 |
| 20260504170503 | 66 | 266 | 6.1 | 19.1 | 0.00 | 0.00 | 0.00 | 40 | 1007.6 |
| 20260504151010 | 66 | 223 | 15.6 | 27.8 | 0.00 | 0.00 | 0.00 | 39 | 1008.3 |
| 20260504150511 | 66 | 261 | 16.5 | 26.9 | 0.00 | 0.00 | 0.00 | 37 | 1008.3 |
| 20260504141009 | 63 | 265 | 12.2 | 26.1 | 0.00 | 0.00 | 0.00 | 41 | 1008.6 |
| 20260504140507 | 63 | 196 | 11.3 | 23.5 | 0.00 | 0.00 | 0.00 | 41 | 1008.6 |
| 20260504130511 | 56 | 191 | 8.7 | 20.0 | 0.00 | 0.00 | 0.00 | 51 | 1009.3 |
| 20260504110504 | 43 | 221 | 3.5 | 7.0 | 0.00 | 0.00 | 0.00 | 76 | 1010.3 |
| 20260504100504 | 40 | 227 | 4.3 | 6.1 | 0.00 | 0.00 | 0.00 | 85 | 1010.0 |
| 20260504082006 | 41 | 205 | 3.5 | 5.2 | 0.00 | 0.00 | 0.00 | 86 | 1010.3 |
| 20260504081527 | 41 | 178 | 0.9 | 2.6 | 0.00 | 0.00 | 0.00 | 85 | 1010.2 |
| 20260504081002 | 41 | 238 | 0.9 | 3.5 | 0.00 | 0.00 | 0.00 | 85 | 1010.2 |
| 20260504080507 | 41 | 243 | 1.7 | 3.5 | 0.00 | 0.00 | 0.00 | 84 | 1010.2 |
| 20260504050506 | 39 | 205 | 2.6 | 5.2 | 0.00 | 0.00 | 0.00 | 77 | 1010.7 |
| 20260504050020 | 39 | 231 | 3.5 | 5.2 | 0.00 | 0.00 | 0.00 | 78 | 1010.7 |
| 20260504045506 | 39 | 219 | 3.5 | 5.2 | 0.00 | 0.00 | 0.00 | 77 | 1010.7 |
| 20260504045010 | 39 | 224 | 2.6 | 5.2 | 0.00 | 0.00 | 0.00 | 78 | 1010.7 |
| 20260504044522 | 39 | 225 | 2.6 | 4.3 | 0.00 | 0.00 | 0.00 | 78 | 1010.7 |
| 20260504044006 | 39 | 255 | 2.6 | 4.3 | 0.00 | 0.00 | 0.00 | 78 | 1010.7 |
| 20260504043507 | 38 | 247 | 1.7 | 3.5 | 0.00 | 0.00 | 0.00 | 79 | 1010.7 |
| 20260504043025 | 38 | 295 | 1.7 | 3.5 | 0.00 | 0.00 | 0.00 | 80 | 1010.7 |
| 20260504042510 | 38 | 215 | 1.7 | 3.5 | 0.00 | 0.00 | 0.00 | 80 | 1010.7 |
| 20260504042011 | 38 | 225 | 1.7 | 3.5 | 0.00 | 0.00 | 0.00 | 80 | 1010.7 |
| 20260504041513 | 38 | 205 | 1.7 | 2.6 | 0.00 | 0.00 | 0.00 | 80 | 1010.8 |
| 20260504041005 | 37 | 319 | 0.9 | 2.6 | 0.00 | 0.00 | 0.00 | 80 | 1010.7 |
| 20260504040506 | 37 | 212 | 1.7 | 3.5 | 0.00 | 0.00 | 0.00 | 80 | 1010.6 |
| 20260504040016 | 37 | 170 | 1.7 | 4.3 | 0.00 | 0.00 | 0.00 | 81 | 1010.6 |
| 20260504035507 | 37 | 212 | 2.6 | 4.3 | 0.00 | 0.00 | 0.00 | 81 | 1010.4 |
| 20260504035007 | 36 | 150 | 0.9 | 2.6 | 0.00 | 0.00 | 0.00 | 82 | 1010.4 |
| 20260504034523 | 36 | 178 | 0.0 | 2.6 | 0.00 | 0.00 | 0.00 | 82 | 1010.4 |
| 20260504034010 | 36 | 232 | 0.9 | 2.6 | 0.00 | 0.00 | 0.00 | 82 | 1010.4 |
| 20260504033507 | 36 | 309 | 1.7 | 2.6 | 0.00 | 0.00 | 0.00 | 82 | 1010.4 |
| 20260504033002 | 36 | 67 | 0.0 | 1.7 | 0.00 | 0.00 | 0.00 | 82 | 1010.3 |
| 20260504032503 | 36 | 238 | 0.9 | 1.7 | 0.00 | 0.00 | 0.00 | 82 | 1010.4 |
| 20260504032002 | 36 | 238 | 0.0 | 1.7 | 0.00 | 0.00 | 0.00 | 82 | 1010.4 |
| 20260504031506 | 36 | 238 | 0.9 | 1.7 | 0.00 | 0.00 | 0.00 | 82 | 1010.3 |
| 20260504031001 | 36 | 265 | 0.0 | 1.7 | 0.00 | 0.00 | 0.00 | 81 | 1010.3 |
| 20260504030502 | 36 | 291 | 0.9 | 1.7 | 0.00 | 0.00 | 0.00 | 80 | 1010.3 |
| 20260504030003 | 36 | 247 | 0.0 | 2.6 | 0.00 | 0.00 | 0.00 | 81 | 1010.4 |
| 20260504025502 | 36 | 255 | 0.9 | 2.6 | 0.00 | 0.00 | 0.00 | 80 | 1010.4 |
| 20260504025004 | 36 | 212 | 0.9 | 2.6 | 0.00 | 0.00 | 0.00 | 79 | 1010.4 |
| 20260504024502 | 36 | 232 | 0.9 | 2.6 | 0.00 | 0.00 | 0.00 | 79 | 1010.4 |
| 20260504024001 | 36 | 265 | 0.9 | 2.6 | 0.00 | 0.00 | 0.00 | 78 | 1010.5 |
| 20260504023502 | 36 | 273 | 1.7 | 2.6 | 0.00 | 0.00 | 0.00 | 78 | 1010.4 |
| 20260504023004 | 36 | 247 | 0.9 | 2.6 | 0.00 | 0.00 | 0.00 | 78 | 1010.4 |
| 20260504022505 | 37 | 250 | 0.9 | 2.6 | 0.00 | 0.00 | 0.00 | 78 | 1010.4 |
| 20260504022004 | 37 | 178 | 0.0 | 2.6 | 0.00 | 0.00 | 0.00 | 77 | 1010.3 |
| 20260504021509 | 37 | 221 | 0.9 | 3.5 | 0.00 | 0.00 | 0.00 | 77 | 1010.3 |
| 20260504021002 | 37 | 282 | 1.7 | 3.5 | 0.00 | 0.00 | 0.00 | 77 | 1010.3 |
| 20260504020502 | 37 | 242 | 1.7 | 2.6 | 0.00 | 0.00 | 0.00 | 78 | 1010.2 |
| 20260504020003 | 37 | 265 | 0.9 | 5.2 | 0.00 | 0.00 | 0.00 | 76 | 1010.1 |
| 20260504015502 | 38 | 249 | 1.7 | 5.2 | 0.00 | 0.00 | 0.00 | 75 | 1010.1 |
| 20260504015001 | 38 | 229 | 2.6 | 4.3 | 0.00 | 0.00 | 0.00 | 75 | 1010.0 |
| 20260504014503 | 38 | 255 | 0.9 | 3.5 | 0.00 | 0.00 | 0.00 | 75 | 1010.1 |
| 20260504014002 | 38 | 286 | 1.7 | 3.5 | 0.00 | 0.00 | 0.00 | 74 | 1010.0 |
| 20260504013503 | 39 | 216 | 2.6 | 5.2 | 0.00 | 0.00 | 0.00 | 73 | 1010.0 |
| 20260504013005 | 39 | 344 | 0.9 | 5.2 | 0.00 | 0.00 | 0.00 | 72 | 1009.9 |
| 20260504012503 | 39 | 255 | 0.9 | 2.6 | 0.00 | 0.00 | 0.00 | 72 | 1009.8 |
| 20260504012003 | 39 | 221 | 0.9 | 2.6 | 0.00 | 0.00 | 0.00 | 71 | 1009.7 |
| 20260504011504 | 40 | 153 | 0.9 | 4.3 | 0.00 | 0.00 | 0.00 | 71 | 1009.6 |
| 20260504011002 | 40 | 238 | 1.7 | 4.3 | 0.00 | 0.00 | 0.00 | 71 | 1009.5 |
| 20260504010502 | 40 | 236 | 2.6 | 3.5 | 0.00 | 0.00 | 0.00 | 70 | 1009.5 |
| 20260504010004 | 41 | 265 | 0.9 | 2.6 | 0.00 | 0.00 | 0.00 | 69 | 1009.3 |
| 20260504005502 | 41 | 242 | 0.9 | 2.6 | 0.00 | 0.00 | 0.00 | 69 | 1009.3 |
| 20260504005002 | 41 | 265 | 0.9 | 5.2 | 0.00 | 0.00 | 0.00 | 67 | 1009.2 |
| 20260504004511 | 42 | 250 | 2.6 | 5.2 | 0.00 | 0.00 | 0.00 | 68 | 1009.1 |
| 20260504004003 | 42 | 249 | 2.6 | 4.3 | 0.00 | 0.00 | 0.00 | 69 | 1009.0 |
| 20260504003501 | 42 | 229 | 1.7 | 3.5 | 0.00 | 0.00 | 0.00 | 68 | 1008.9 |
| 20260504003003 | 42 | 219 | 1.7 | 2.6 | 0.00 | 0.00 | 0.00 | 69 | 1008.8 |
| 20260504002503 | 43 | 238 | 0.9 | 3.5 | 0.00 | 0.00 | 0.00 | 69 | 1008.8 |
| 20260504002003 | 43 | 265 | 1.7 | 3.5 | 0.00 | 0.00 | 0.00 | 65 | 1008.7 |
| 20260504001510 | 43 | 250 | 0.0 | 2.6 | 0.00 | 0.00 | 0.00 | 66 | 1008.7 |
| 20260504001003 | 44 | 338 | 0.9 | 2.6 | 0.00 | 0.00 | 0.00 | 68 | 1008.6 |
| 20260504000502 | 45 | 247 | 0.9 | 3.5 | 0.00 | 0.00 | 0.00 | 65 | 1008.5 |
| 20260504000004 | 46 | 254 | 0.9 | 3.5 | 0.00 | 0.00 | 0.00 | 57 | 1008.6 |
| 20260503235502 | 46 | 249 | 1.7 | 3.5 | 0.00 | 0.00 | 0.00 | 56 | 1008.5 |
| 20260503235003 | 47 | 249 | 1.7 | 3.5 | 0.00 | 0.00 | 0.00 | 55 | 1008.4 |
| 20260503234504 | 48 | 241 | 1.7 | 2.6 | 0.00 | 0.00 | 0.00 | 51 | 1008.3 |
| 20260503234003 | 48 | 238 | 0.9 | 2.6 | 0.00 | 0.00 | 0.00 | 50 | 1008.3 |
| 20260503233509 | 48 | 229 | 0.9 | 1.7 | 0.00 | 0.00 | 0.00 | 46 | 1008.3 |
| 20260503233004 | 49 | 51 | 0.9 | 2.6 | 0.00 | 0.00 | 0.00 | 47 | 1008.3 |
| 20260503232502 | 49 | 309 | 0.0 | 4.3 | 0.00 | 0.00 | 0.00 | 46 | 1008.2 |
| 20260503232003 | 49 | 279 | 0.9 | 4.3 | 0.00 | 0.00 | 0.00 | 46 | 1008.2 |
| 20260503231504 | 50 | 329 | 1.7 | 4.3 | 0.00 | 0.00 | 0.00 | 44 | 1008.2 |
| 20260503231004 | 51 | 9 | 1.7 | 4.3 | 0.00 | 0.00 | 0.00 | 42 | 1008.2 |
| 20260503230503 | 51 | 341 | 1.7 | 8.7 | 0.00 | 0.00 | 0.00 | 41 | 1008.2 |
| 20260503230004 | 51 | 22 | 3.5 | 8.7 | 0.00 | 0.00 | 0.00 | 39 | 1008.2 |
| 20260503225503 | 51 | 57 | 0.9 | 8.7 | 0.00 | 0.00 | 0.00 | 41 | 1008.2 |
| 20260503225003 | 52 | 13 | 3.5 | 10.4 | 0.00 | 0.00 | 0.00 | 40 | 1008.2 |
| 20260503224505 | 52 | 36 | 5.2 | 10.4 | 0.00 | 0.00 | 0.00 | 38 | 1008.2 |
| 20260503224003 | 52 | 31 | 6.1 | 12.2 | 0.00 | 0.00 | 0.00 | 39 | 1008.2 |
| 20260503223505 | 52 | 15 | 4.3 | 12.2 | 0.00 | 0.00 | 0.00 | 40 | 1008.2 |